AirNav   ATP
 
 1587 users online  

T37 Goldthwaite Municipal Airport
Goldthwaite, Texas, USA

GOING TO GOLDTHWAITE?


FAA INFORMATION EFFECTIVE 24 MAY 2018

Location

FAA Identifier: T37
Lat/Long: 31-25-44.6400N / 098-36-30.0800W
31-25.744000N / 098-36.501333W
31.4290667 / -98.6083556
(estimated)
Elevation: 1457 ft. / 444 m (estimated)
From city: 2 miles SW of GOLDTHWAITE, TX
Time zone: UTC -5 (UTC -6 during Standard Time)
Zip code: 76844

Airport Operations

Airport use: Open to the public
Activation date: 08/2010
Control tower: no
ARTCC: FORT WORTH CENTER
FSS: FORT WORTH FLIGHT SERVICE STATION
NOTAMs facility: FTW (NOTAM-D service available)
Attendance: 0800-1700
Wind indicator: lighted
Segmented circle: yes

Airport Communications

CTAF: 122.9
WX AWOS-3 at 81R (13 nm SW): PHONE 325-372-6027

Nearby radio navigation aids

VOR radial/distance  VOR name  Freq  Var
AGJr296/28.0GOOCH SPRINGS VORTAC112.5005E
BWDr139/33.0BROWNWOOD VOR/DME108.6008E
LLOr006/39.1LLANO VORTAC108.2008E

 
NDB name  Hdg/Dist  Freq  Var  ID
BRADY061/39.638007EBBD -... -... -..

Airport Services

Parking: hangars

Runway Information

Runway 1/19

Dimensions: 3200 x 60 ft. / 975 x 18 m
Surface: asphalt, in good condition
Weight bearing capacity: 
Single wheel: 12.5
RUNWAY 1  RUNWAY 19
Latitude: 31-25.485000N31-26.002833N
Longitude: 098-36.560833W098-36.442000W
Elevation: 1445.0 ft.1457.0 ft.
Traffic pattern: leftleft
Markings: basic, in fair conditionbasic, in fair condition
Obstructions: 3 ft. fence, 200 ft. from runway, 91 ft. left of centerline
3 FT FENCE 0-200 FT FM THLD 91 FT L.
50 ft. tree, 1133 ft. from runway, 32 ft. left of centerline, 18:1 slope to clear

Airport Ownership and Management from official FAA records

Ownership: Publicly-owned
Owner: CITY OF GOLDTHWAITE
PO BOX 450
GOLDTHWAITE, TX 76844-0450
Phone 325-648-3186
Manager: ROBERT LINDSEY
PO BOX 450
GOLDTHWAITE, TX 76844-0450
Phone 325-648-3186
CITY MANAGER

Airport Operational Statistics

Aircraft based on the field: 9
Single engine airplanes: 9
    
Aircraft operations: avg 52/week *
67% local general aviation
33% transient general aviation
* for 12-month period ending 13 September 2017

Additional Remarks

RWY 01 HAS 4 FT FENCE AND ISOLATED + 18 FT TREES 400-475 FT FM THLD ACROSS APCH.
DEER ON & INVOF ARPT.

Instrument Procedures

There are no published instrument procedures at T37.

Some nearby airports with instrument procedures:

KMNZ - Hamilton Municipal Airport (27 nm NE)
KBWD - Brownwood Regional Airport (28 nm NW)
KLZZ - Lampasas Airport (29 nm SE)
KMKN - Comanche County-City Airport (29 nm N)
KAQO - Llano Municipal Airport (39 nm S)
 
Loc | Ops | Rwys | IFR | FBO | Links
Com | Nav | Svcs | Stats | Notes

AirNav Hotels Sweepstakes
 
Aerial photo
WARNING: Photo may not be current or correct
Aerial photo of T37 (Goldthwaite Municipal Airport)
Photo taken 20-Sep-2010

Do you have a better or more recent aerial photo of Goldthwaite Municipal Airport that you would like to share? If so, please send us your photo.

 
Sectional chart

 
Airport distance calculator
Flying to Goldthwaite Municipal Airport? Find the distance to fly.

From to T37

Sunrise and sunset
Times for 20-Jun-2018
 Local
(UTC-5)
 Zulu
(UTC)
Morning civil twilight06:0311:03
Sunrise06:3111:31
Sunset20:4101:41
Evening civil twilight21:0902:09

Current date and time
Zulu (UTC)  20-Jun-2018 16:16:39
Local (UTC-5)  20-Jun-2018 11:16:39
 
METAR
KMNZ 
27nm NE 
201555Z AUTO 00000KT 10SM RA SCT015 BKN023 OVC034 25/24 A2994 RMK AO2 T02540235
KBWD 
28nm NW 
200501Z 11005KT 10SM OVC021 23/21 A2992
KLZZ 
29nm SE 
201555Z AUTO 06006KT 10SM SCT018 BKN025 OVC050 26/22 A2990 RMK AO2 T02580217
KMKN 
29nm N 
201555Z AUTO 11004KT 10SM SCT019 SCT024 OVC038 27/21 A2995 RMK AO2 T02680209
KAQO 
39nm S 
201555Z AUTO 00000KT 10SM SCT017 BKN027 BKN034 27/22 A2993 RMK AO2
KBBD 
40nm W 
201555Z AUTO 07006KT 10SM FEW015 SCT036 BKN045 25/21 A2994 RMK AO2
KGOP 
42nm E 
201555Z AUTO VRB03KT 10SM SCT016 BKN024 26/22 A2992 RMK AO2
KGRK 
45nm SE 
201308Z AUTO 11005KT 9SM OVC008 24/22 A2988 RMK AO2 SLP108
KBMQ 
46nm SE 
201604Z AUTO 11006KT 10SM FEW011 BKN016 OVC070 26/22 A2992 RMK AO2 T02610222 $
KCOM 
48nm NW 
201550Z AUTO 00000KT 10SM SCT008 BKN034 OVC043 24/21 A2997 RMK AO2 T02380208
TAF
KBBD 
40nm W 
201120Z 2012/2112 13008KT P6SM SCT015 OVC020 FM201800 12007KT P6SM SCT050 SCT250
KGRK 
45nm SE 
200800Z 2008/2114 11009KT 8000 -SHRA BKN007 BKN015 QNH2985INS TEMPO 2009/2013 BKN005 BECMG 2015/2016 12012KT 4800 -SHRA BKN015 OVC030 QNH2982INS TEMPO 2018/2022 16015G25KT 6000 -TSRA BKN020CB BECMG 2104/2105 15008KT 9999 NSW BKN007 QNH2989INS TX31/2021Z TN23/2011Z
NOTAMs
Click for the latest NOTAMs
NOTAMs are issued by the DoD/FAA and will open in a separate window not controlled by AirNav.

 

 
 

Would you like to see your business listed on this page?

 If your business provides an interesting product or service to pilots, flight crews, aircraft, or users of the Goldthwaite Municipal Airport, you should consider listing it here.  To start the listing process, click on the button below
 
Add a business
 

Other Pages about Goldthwaite Municipal Airport

Update a link
 
Copyright © AirNav, LLC. All rights reserved. Privacy Policy  Contact